Location: Allaines
(49.9632°N, 2.9458°E)
Time: 16:56:47
(UTC+00:00)

Tiangong - Pass Details

Date: 29 June 2021
Orbit: 373 x 386 km, 41.5° (Epoch: 02 August)

Event Time Altitude Azimuth Distance (km) Brightness Sun altitude
Exits shadow 01:44:07 15° 160° (SSE) 1,123 3.0 -12.7°
Drops below altitude 10° 01:45:15 10° 140° (SE) 1,384 3.6 -12.6°
Sets 01:47:46 0° 120° (ESE) 2,239 4.9 -12.4°
